Location: Mexico
(19.4000°N, 99.1500°W)
Time: 22:45:45
(UTC-06:00)

ISS - Pass Details

Date: 21 May 2019
Orbit: 407 x 410 km, 51.6° (Epoch: 23 May)

Event Time Altitude Azimuth Distance (km) Brightness Sun altitude
Exits shadow 03:32:07 12° 66° (ENE) 1,376 -0.4 -31.0°
Drops below altitude 10° 03:32:38 10° 74° (ENE) 1,464 -0.3 -30.9°
Sets 03:35:37 0° 104° (ESE) 2,323 0.5 -30.3°
